Regional Weather Roundup
Issued by NWS

Home | Current Version | Previous Version | Text Only | Print | Product List | Glossary On
Versions: 1 2 3 4 5 6 7 8 9 10 11 12 13 14 15 16 17 18 19 20 21 22 23 24 25 26 27 28 29 30 31 32 33 34 35 36 37 38 39 40 41 42 43 44 45 46 47 48 49 50
000
ASUS43 KFSD 181410
RWRSD

WEATHER ROUNDUP FOR SOUTH DAKOTA
NATIONAL WEATHER SERVICE SIOUX FALLS SD
900 AM CDT FRI AUG 18 2017

NOTE: "FAIR" INDICATES FEW OR NO CLOUDS BELOW 12,000 FEET WITH NO
SIGNIFICANT WEATHER AND/OR OBSTRUCTIONS TO VISIBILITY.


SDZ001>005-009-010-012>017-181500-
NORTHWEST AND NORTH CENTRAL SOUTH DAKOTA

CITY           SKY/WX    TMP DP  RH WIND       PRES   REMARKS
BUFFALO          N/A     61  50  67 CALM      29.98R
FAITH            N/A     63  51  65 N10       29.99R
MOBRIDGE       MOSUNNY   64  58  80 NW14      29.90R
$$

SDZ012>016-024>037-041>051-057-063-072>074-181500-
SOUTHWEST AND SOUTH CENTRAL SOUTH DAKOTA

CITY           SKY/WX    TMP DP  RH WIND       PRES   REMARKS
RAPID CTY ARPT PTSUNNY   68  49  50 N8        30.04R
PIERRE         CLOUDY    62  57  83 W10       29.91R
CUSTER         SUNNY     64  42  44 CALM      30.18R
ELLSWORTH AFB  SUNNY     67  47  47 N6        30.04R
PHILIP         SUNNY     62  51  67 W8        29.98R
PINE RIDGE     SUNNY     64  55  72 W5        30.07R
SPEARFISH      FAIR      68  45  42 W7        30.09R
WINNER         FAIR      65  55  70 SW6       29.96R
$$

SDZ004>011-016>023-039-040-181500-
NORTHEAST SOUTH DAKOTA

CITY           SKY/WX    TMP DP  RH WIND       PRES   REMARKS
ABERDEEN       SUNNY     66  59  78 S9        29.88S
WATERTOWN      MOSUNNY   63  59  87 S9        29.90F
BROOKINGS      MOSUNNY   62  59  90 CALM      29.94S
SISSETON         N/A     65  62  90 CALM      29.86R
$$

SDZ017-020-022-023-036>040-048>070-181500-
SOUTHEAST SOUTH DAKOTA

CITY           SKY/WX    TMP DP  RH WIND       PRES   REMARKS
SIOUX FALLS    MOSUNNY   66  61  84 E3        29.94S
HURON          SUNNY     64  60  87 SE5       29.91S
CHAMBERLAIN    SUNNY     64  63  96 SW7       29.93R
MITCHELL       SUNNY     66  62  87 S9        29.92R
YANKTON        SUNNY     68  62  81 NE3       29.94
$$

ABBREVIATIONS USED IN REMARKS
   TC - TEMPERATURE IN CELSIUS
  WCI - WIND CHILL INDEX
   HX - HEAT INDEX
  VSB - VISIBILITY





USA.gov is the U.S. government's official web portal to all federal, state and local government web resources and services.